Regional Weather Roundup
Issued by NWS

Home | Current Version | Previous Version | Text Only | Print | Product List | Glossary Off
Versions: 1 2 3 4 5 6 7 8 9 10 11 12 13 14 15 16 17 18 19 20 21 22 23 24 25 26 27 28

000
ASUS45 KGTF 040410
RWRMT
MONTANA HOURLY WEATHER ROUNDUP
NATIONAL WEATHER SERVICE GREAT FALLS MT
1000 PM MDT SUN MAY 03 2015

NOTE: "FAIR" INDICATES FEW OR NO CLOUDS BELOW 12000 FEET WITH NO
SIGNIFICANT WEATHER AND/OR OBSTRUCTIONS TO VISIBILITY.

MTZ001>007-043-040500-
WEST OF THE DIVIDE

CITY           SKY/WX    TMP DP  RH WIND       PRES   REMARKS
KALISPELL      CLEAR     43  29  57 N5        29.91R
MISSOULA       CLEAR     51  20  29 W8        29.91R
BUTTE          PTCLDY    53  25  33 S7        29.97R
DEER LODGE       N/A     46  21  36 W6        29.97R
EUREKA           N/A     48  27  43 CALM      29.93
HAMILTON         N/A     48  30  49 SE5       29.91R
LIBBY            N/A     50  28  43 SE5       29.92R
$$

MTZ008-052>055-040500-
SOUTHWEST MONTANA

CITY           SKY/WX    TMP DP  RH WIND       PRES   REMARKS
BOZEMAN        PTCLDY    49  31  49 E3        29.95R
DILLON         MOCLDY    53  28  38 E8        29.93R
$$

MTZ009-010-012-014-046-048-049-054-040500-
EAST SLOPES AND CENTRAL MONTANA

CITY           SKY/WX    TMP DP  RH WIND       PRES   REMARKS
CUT BANK       CLEAR     47  21  35 NE10      29.98R
GREAT FALLS    CLEAR     53  30  41 E10       29.95R
MALMSTROM AFB  CLEAR     47  32  57 NE8       29.95R
HELENA         CLEAR     54  28  36 W8        29.92R
$$

MTZ011-013-016-021-045-047-050-051-040500-
NORTH CENTRAL MONTANA

CITY           SKY/WX    TMP DP  RH WIND       PRES   REMARKS
HAVRE          CLEAR     51  30  44 E16       30.01R
LEWISTOWN      MOCLDY    50  31  48 E13       30.01R
CHINOOK          N/A     50  28  43 E5        30.03R
FORT BENTON      N/A     52  30  43 NE7       29.97S
$$

MTZ017>020-022>042-056>058-061-062-040500-
EASTERN PLAINS

CITY           SKY/WX    TMP DP  RH WIND       PRES   REMARKS
BAKER          MOCLDY    42  30  62 SE5       30.10R
BILLINGS       MOCLDY    52  35  52 NE8       30.01R
GLASGOW        CLEAR     45  27  49 E9        30.06R
JORDAN           N/A     47  26  44 E7        30.05R
LIVINGSTON     PTCLDY    52  32  46 E14       29.98R
MILES CITY     PTCLDY    54  29  38 E8        30.06R
SIDNEY         MOCLDY    48  25  40 CALM      30.10R
WOLF POINT     CLEAR     44  27  51 E6        30.09R
BIG TIMBER       N/A     52  34  50 NE6       30.03R
FORSYTH          N/A     52  30  43 E7        30.05R
PLENTYWOOD       N/A     46  18  31 NE8       30.10R
POPLAR           N/A     48  25  40 NE7       30.09S
$$

REGIONAL REPORTS...DAKOTAS

CITY           SKY/WX    TMP DP  RH WIND       PRES   REMARKS
WILLISTON      PTCLDY    46  20  35 NE5       30.10R
MINOT          CLEAR     47  27  45 NW9       30.07R
DICKINSON      MOCLDY    42  27  55 S5        30.08R
BEACH          FAIR      41  32  70 CALM      30.10S
CROSBY         FAIR      37  25  60 W5        30.10S
WATFORD CITY   FAIR      46  21  36 CALM      30.08R
BISMARCK       PTCLDY    53  22  29 N6        30.08R
GRAND FORKS    PTCLDY    49  29  46 N10       30.00R
FARGO          CLEAR     51  26  37 NW7       29.99R
BUFFALO SD       N/A     52  34  50 E3        30.04R
RAPID CITY     PTCLDY    51  34  52 NE10      30.08R
$$

REGIONAL REPORTS...WYOMING/IDAHO/WASHINGTON

CITY           SKY/WX    TMP DP  RH WIND       PRES   REMARKS
GILLETTE       LGT RAIN  49  44  83 CALM      30.07R
SHERIDAN       CLOUDY    51  41  68 NE3       30.03R
BUFFALO WY     CLOUDY    53  44  71 S7        30.08R
CODY           CLOUDY    52  43  71 SW7       30.02S
YELLOWSTONE LA   N/A     34  32  92 NW3       30.13R
IDAHO FALLS    MOCLDY    54  46  74 E12       29.95R
SALMON         PTCLDY    54  36  50 CALM      29.87R
BOISE          CLEAR     67  28  23 CALM      29.80R
SPOKANE        CLEAR     61  23  23 N5        29.89R
$$

REGIONAL REPORTS...ALBERTA

CITY           SKY/WX    TMP DP  RH WIND       PRES   REMARKS
EDMONTON       CLEAR     37  32  81 E7        30.02R
CALGARY        PTCLDY    46  23  39 SE13G20   29.97R
LETHBRIDGE     PTCLDY    43  30  61 E9        29.99R
MEDICINE HAT   CLEAR     46  28  49 E5        30.04R
$$

REGIONAL REPORTS...SASKATCHEWAN

CITY           SKY/WX    TMP DP  RH WIND       PRES   REMARKS
SWIFT CURRENT  PTCLDY    37  28  70 E6        30.08R
REGINA         PTCLDY    43  32  65 S6        30.10R
SASKATOON      PTCLDY    43  28  56 W7        30.08R
$$



USA.gov is the U.S. government's official web portal to all federal, state and local government web resources and services.